Weather History for St. David's, Bermuda

Change the Weather History Date:

Thursday, November 10, 2011

  Actual Average Record
Temperature  
Mean Temperature 76 °F -  
Max Temperature 78 °F 71 °F 78 °F (2011)
Min Temperature 73 °F 63 °F 60 °F (1999)
Cooling Degree Days 10    
Growing Degree Days 26 (Base 50)    
Moisture  
Dew Point 70 °F    
Average Humidity 80    
Maximum Humidity 88    
Minimum Humidity 72    
Precipitation  
Precipitation 0.24 in - - ()
Sea Level Pressure  
Sea Level Pressure 29.80 in    
Wind  
Wind Speed 22 mph ()    
Max Wind Speed 31 mph    
Max Gust Speed 43 mph    
Visibility 6.6 miles    
Events Rain    
Averages and records for this station are not official NWS values.
T = Trace of Precipitation, MM = Missing Value Source: Averaged Metar Reports

Daily Weather History Graph

Daily Weather History Graph

Search for Another Location

Airport:

Trip Planner

Search our weather history database for the weather conditions in past years. The results will help you decide how hot, cold, wet, or windy it might be!

Date:

Astronomy

Nov. 10, 2011 Rise Set
Actual Time 6:43 AM AST 5:21 PM AST
Civil Twilight 6:17 AM AST 5:47 PM AST
Nautical Twilight 5:48 AM AST 6:16 PM AST
Astronomical Twilight 5:19 AM AST 6:45 PM AST
Moon 5:09 PM AST (11/10) 6:29 AM AST (11/10)
Length of Visible Light 11h 29m
Length of Day
10h 38m
Full, 100% of the Moon is Illuminated
Nov 10
Full
Nov 10
Full
Nov 18
Last Quarter
Nov 25
New
Dec 2
First Quarter

Hourly Weather History & Observations

Time (AST) Temp. Dew Point Humidity Pressure Visibility Wind Dir Wind Speed Gust Speed Precip Events Conditions
12:55 AM 75.2 °F 68.0 °F 78% 29.89 in 6.2 mi ESE 26.5 mph - N/A   Mostly Cloudy
1:38 AM 75.2 °F 69.8 °F 83% 29.89 in 6.2 mi ESE 26.5 mph - N/A   Mostly Cloudy
1:55 AM 75.2 °F 69.8 °F 83% 29.89 in 6.2 mi ESE 26.5 mph - N/A   Mostly Cloudy
2:00 AM 76 °F 69 °F 73% 29.89 in 9 mi ESE 26.5 mph - -   Mostly Cloudy
2:40 AM 75.2 °F 69.8 °F 83% 29.86 in 6.2 mi ESE 26.5 mph - N/A   Mostly Cloudy
2:55 AM 75.2 °F 68.0 °F 78% 29.86 in 6.2 mi ESE 25.3 mph - N/A   Mostly Cloudy
3:37 AM 75.2 °F 68.0 °F 78% 29.86 in 5.6 mi ESE 24.2 mph - N/A Rain Light Rain Showers
3:41 AM 75.2 °F 69.8 °F 83% 29.86 in - ESE 23.0 mph - N/A Rain Rain Showers
3:55 AM 73.4 °F 69.8 °F 88% 29.86 in 6.2 mi ESE 23.0 mph - N/A   Mostly Cloudy
4:55 AM 75.2 °F 69.8 °F 83% 29.86 in 6.2 mi SE 17.3 mph - N/A   Mostly Cloudy
5:00 AM 75 °F 70 °F 80% 29.87 in 9 mi SE 17.3 mph - - Rain Light Rain Showers
5:00 AM 75.2 °F 69.8 °F 83% 29.86 in - SE 17.3 mph - N/A Rain Rain Showers
5:03 AM 75.2 °F 69.8 °F 83% 29.86 in 1.0 mi SE 18.4 mph 29.9 mph N/A Rain Heavy Rain Showers
5:08 AM 73.4 °F 69.8 °F 88% 29.86 in 6.2 mi SE 19.6 mph - N/A Rain Light Rain Showers
5:40 AM 75.2 °F 69.8 °F 83% 29.83 in 6.2 mi SE 19.6 mph - N/A   Overcast
5:55 AM 75.2 °F 69.8 °F 83% 29.86 in 6.2 mi SE 21.9 mph - N/A   Overcast
6:55 AM 75.2 °F 69.8 °F 83% 29.86 in 6.2 mi SE 23.0 mph - N/A   Mostly Cloudy
7:55 AM 75.2 °F 69.8 °F 83% 29.86 in 6.2 mi SE 23.0 mph - N/A   Mostly Cloudy
8:00 AM 76 °F 70 °F 76% 29.88 in 9 mi ESE 23.0 mph - -   Mostly Cloudy
8:55 AM 77.0 °F 69.8 °F 78% 29.86 in - North - - N/A   Mostly Cloudy
9:55 AM 77.0 °F 69.8 °F 78% 29.86 in 6.2 mi SE 21.9 mph - N/A   Mostly Cloudy
10:55 AM 77.0 °F 69.8 °F 78% 29.83 in 6.2 mi SE 24.2 mph 36.8 mph N/A   Mostly Cloudy
11:00 AM 77 °F 70 °F 72% 29.85 in 9 mi SE 24.2 mph - -  
11:55 AM 78.8 °F 71.6 °F 78% 29.80 in 6.2 mi SE 26.5 mph 41.4 mph N/A   Mostly Cloudy
12:55 PM 77.0 °F 71.6 °F 83% 29.77 in 6.2 mi SE 25.3 mph - N/A   Mostly Cloudy
1:55 PM 77.0 °F 69.8 °F 78% 29.74 in 6.2 mi SE 24.2 mph - N/A   Scattered Clouds
2:00 PM 77 °F 70 °F 74% 29.76 in 9 mi SE 24.2 mph - -   Scattered Clouds
2:55 PM 77.0 °F 69.8 °F 78% 29.74 in 6.2 mi SE 23.0 mph - N/A   Scattered Clouds
3:55 PM 77.0 °F 69.8 °F 78% 29.71 in 6.2 mi SE 21.9 mph - N/A   Scattered Clouds
4:55 PM 77.0 °F 69.8 °F 78% 29.71 in 6.2 mi SSE 26.5 mph - N/A   Scattered Clouds
5:00 PM 76 °F 70 °F 78% 29.73 in 9 mi SE 23.0 mph - -  
5:55 PM 77.0 °F 71.6 °F 83% 29.71 in 6.2 mi SSE 26.5 mph - N/A   Scattered Clouds
6:55 PM 77.0 °F 71.6 °F 83% 29.71 in 6.2 mi SE 25.3 mph - N/A   Scattered Clouds
7:55 PM 77.0 °F 69.8 °F 78% 29.71 in 6.2 mi SSE 28.8 mph - N/A   Scattered Clouds
8:00 PM 76 °F 71 °F 78% 29.72 in 9 mi SSE 26.5 mph - -   Partly Cloudy
8:55 PM 77.0 °F 69.8 °F 78% 29.71 in 6.2 mi SSE 27.6 mph - N/A   Mostly Cloudy
9:55 PM 77.0 °F 71.6 °F 83% 29.68 in 6.2 mi SSE 29.9 mph - N/A   Scattered Clouds
10:55 PM 77.0 °F 71.6 °F 83% 29.68 in 6.2 mi SSE 31.1 mph - N/A   Mostly Cloudy
11:00 PM 77 °F 71 °F 78% 29.68 in 9 mi SSE 29.9 mph - -   Mostly Cloudy
11:12 PM 77.0 °F 71.6 °F 83% 29.65 in 6.2 mi SSE 31.1 mph - N/A   Scattered Clouds
11:55 PM 77.0 °F 71.6 °F 83% 29.65 in 6.2 mi SSE 31.1 mph 42.6 mph N/A   Mostly Cloudy